Find Starlink 32164

NORAD ID: 60271 Int'l Des: 2024-131 Owner: SPXS Country: US Constellation: starlink operational
LEOCIRCULAR

現在のビュー

3D地球を読み込み中...

About Starlink 32164

Starlink 32164 (NORAD 60271) is a starlink constellation satellite (v2 mini) launched Jul 27, 2024 by SPXS of US. It operates in LEO, CIRCULAR orbit with a mass of 730.00 kg.

次回通過

Passes for default location (London). Set your location on the main map for personalized predictions.

高度履歴

Loading altitude history...

軌道要素

1 60271U 24131S 26236.69487280 -.00000785 00000-0 -12106-4 0 9996
2 60271 53.1609 351.1709 0001394 72.5451 287.5704 15.34392692117353
Epoch: Aug 24, 2026 • Age: 19 hours

現在のステータス

高度 468.1 km
遠地点 / 近地点 N/A
速度 7.64 km/s
衛星直下点 52.35°N, 88.15°W
打ち上げ日 Jul 27, 2024
運用期間 2 years
タイプ internet

技術仕様

分類 Payload
質量 730.00 kg
乾燥質量 700.00 kg
総質量 730.00 kg
長さ 0.30 m
直径 4.10 m
スパン 29.00 m
形状 Box + pan
製造者 SPXS
バスタイプ Starlink V2M
フェーズステータス In Orbit
所有者/国 SPXS/US

Most Searched